Regional Weather Roundup
Issued by NWS

Home | Current Version | Previous Version | Graphics & Text | Print | Product List | Glossary Off
Versions: 1 2 3 4 5 6 7 8 9 10 11 12 13 14 15 16 17 18 19 20 21 22 23 24 25 26 27 28 29 30 31 32 33 34 35 36 37 38 39 40 41 42 43 44 45 46 47 48 49 50

000
ASUS43 KMKX 050400
RWRWI

WISCONSIN REGIONAL WEATHER ROUNDUP
NATIONAL WEATHER SERVICE MILWAUKEE/SULLIVAN WI
1100 PM CDT TUE AUG 04 2015

NOTE: "FAIR" INDICATES FEW OR NO CLOUDS BELOW 12,000 FEET WITH NO
SIGNIFICANT WEATHER AND/OR OBSTRUCTIONS TO VISIBILITY.

WIZ001-002-006>008-014>016-023>028-050500-
NORTHWEST WISCONSIN

CITY           SKY/WX    TMP DP  RH WIND       PRES   REMARKS
SUPERIOR ARPT  CLEAR     56  51  82 NE6       30.05R
ASHLAND        CLEAR     50  50 100 CALM      30.07R
HAYWARD        PTCLDY    56  52  86 N5        30.06R
SIREN          CLEAR     58  53  84 CALM      30.05R
CUMBERLAND     CLEAR     57  52  82 CALM      30.05R
RICE LAKE      CLEAR     58  55  89 CALM      30.06R
CHETEK         CLEAR     64  57  78 E3        30.04R
LADYSMITH      CLEAR     60  55  82 NE5       30.07R
EAU CLAIRE     CLEAR     60  56  86 CALM      30.02R
MENOMONIE      CLEAR     65  56  72 CALM      30.03R
NEW RICHMOND   CLEAR     62  56  83 CALM      30.04R
OSCEOLA        PTCLDY    61  61  99 CALM      30.05R
$$

WIZ003>005-009-010-017-018-050500-
NORTH CENTRAL WISCONSIN

CITY           SKY/WX    TMP DP  RH WIND       PRES   REMARKS
MANITOWISH WTR CLEAR     54  52  90 CALM      30.07R
ARBOR VITAE    CLEAR     57  52  83 CALM      30.07R
WOODRUFF       CLEAR     57  52  83 CALM      30.07R
RHINELANDER    CLOUDY    59  51  75 VRB3      30.08R
EAGLE RIVER    CLEAR     52  49  87 CALM      30.06R
LAND O LAKES   CLEAR     49  47  93 CALM      30.07R
PHILLIPS       CLOUDY    59  53  81 CALM      30.06R
TOMAHAWK       CLOUDY    57  53  88 CALM      30.06R
MEDFORD        CLEAR     56  55  94 NE6       30.05R
MERRILL        NOT AVBL
$$

WIZ029-030-035-036-043>047-050500-
CENTRAL WISCONSIN

CITY           SKY/WX    TMP DP  RH WIND       PRES   REMARKS
WAUSAU         CLEAR     62  54  74 N3        30.03R
MOSINEE        CLEAR     61  54  77 CALM      30.04R
MARSHFIELD     CLEAR     60  54  80 CALM      30.04R
STEVENS POINT  PTCLDY    56  52  88 CALM      30.03S
WAUPACA        CLEAR     62  56  80 CALM      30.03R
WAUTOMA        NOT AVBL
WISC RAPIDS    LGT RAIN  59  53  80 CALM      30.04R
CAMP DOUGLAS   CLEAR     52  52 100 SE1       30.03R FOG
$$

WIZ011>013-019>022-031-037>040-048>050-050500-
NORTHEAST WISCONSIN

CITY           SKY/WX    TMP DP  RH WIND       PRES   REMARKS
ANTIGO         CLOUDY    57  55  91 CALM      30.06R
SHAWANO        MOCLDY    65  59  80 E7        30.03R
OCONTO         MOCLDY    63  59  87 CALM      30.03R
STURGEON BAY   PTCLDY    61  54  77 NE3       30.06R
GREEN BAY      CLEAR     63  57  81 E6        30.03R
MANITOWOC      NOT AVBL
APPLETON       PTCLDY    63  52  67 NW6       30.02S
CLINTONVILLE   PTCLDY    57  54  88 NE3       30.03R
OSHKOSH        CLEAR     60  54  80 CALM      30.02R
$$

WIZ032>034-041-042-053>061-050500-
SOUTHWEST WISCONSIN

CITY           SKY/WX    TMP DP  RH WIND       PRES   REMARKS
LA CROSSE      CLEAR     66  59  78 S6        30.02R
SPARTA         CLEAR     58  55  91 CALM      30.04R
VIROQUA        CLEAR     63  55  77 SW3       30.05S
BOSCOBEL       CLEAR     59  56  89 CALM      30.04S
PRAIRIE DU CHI CLEAR     62  56  82 CALM      30.03F
PLATTEVILLE    PTCLDY    65  56  73 CALM      30.05R
$$

WIZ056-057-062-063-064-067-068-050500-
SOUTH CENTRAL WISCONSIN

CITY           SKY/WX    TMP DP  RH WIND       PRES   REMARKS
REEDSBURG      CLEAR     62  56  80 CALM      30.03S
BARABOO/DELLS  CLEAR     62  53  72 CALM      30.04R
LONE ROCK      NOT AVBL
MINERAL POINT  CLEAR     64  54  68 CALM      30.05S
MADISON        PTCLDY    63  54  72 CALM      30.03R
MIDDLETON      CLEAR     62  55  77 CALM      30.04S
WATERTOWN      PTCLDY    61  60  98 CALM      30.02S
MONROE         PTCLDY    68  55  64 W8        30.05S
JANESVILLE     FAIR      63  59  88 CALM      30.03S
$$

WIZ051-052-058>065-066-070>072-050500-
SOUTHEAST WISCONSIN

CITY           SKY/WX    TMP DP  RH WIND       PRES   REMARKS
MILWAUKEE      PTCLDY    66  55  67 SW5       30.02S
WAUKESHA       CLEAR     61  52  72 CALM      30.03S
MILWAUKEE/TIMM CLEAR     64  52  63 CALM      30.03S
RACINE         PTCLDY    65  57  75 SW6       30.04S
BURLINGTON     CLEAR     57  55  90 CALM      30.03S
KENOSHA        PTCLDY    61  56  83 SW5       30.03S
FOND DU LAC    CLEAR     60  56  86 CALM      30.02R
SHEBOYGAN      CLEAR     59  56  89 CALM      30.02R
WEST BEND      CLEAR     59  55  88 CALM      30.03R
JUNEAU         CLEAR     62  55  79 CALM      30.04R
$$

LSZ147-162-050500-
LAKE SUPERIOR

STATION/POSITION TIME  TEMP    WIND        PRES    WAVE
                       AIR SEA DIR/SP/G            HT/PER
                 (UTC) (F)     (DEG/KT/KT) (MB)    (FT/S)
W MID LAKE BUOY  0250   58 58  210/  4/  6 1017.3R   0
DEVILS ISLAND    0300   60     170/  7/  7 1017.7R
PORT WING        0340   59     140/  2/  5 1017.9R
SAXON HARBOR     0300   56      CALM  /  2 1017.3
$$

LMZ867-665-643>646-050500-
LAKE MICHIGAN

STATION/POSITION TIME  TEMP    WIND        PRES    WAVE
                       AIR SEA DIR/SP/G            HT/PER
                 (UTC) (F)     (DEG/KT/KT) (MB)    (FT/S)
CHAMBERS ISLAND  0300   65      40/  8/ 11 1016.3R
N MID LAKE BUOY  0250   63 68  340/ 12/ 14 1016.1R   1/ 3
NORTHPORT PIER   0300   63      40/  5/  7 1016.6R
SISTER BAY       0303   61     100/  1/  5   N/A
ALGOMA LAKESHORE 0312             CALM       N/A
KEWAUNEE LAKESHO 0300   62      50/  4/  6 1015.7R
SHEBOYGAN LAKESH 0300   71     270/  1/  2 1016.3R
PORT WASHINGTON  0300   68     260/  1/  3 1016.6R
ATWATER BUOY     0300   69 66  190/  8/  8 1017.7R
MILWAUKEE LAKESH 0300   70     190/  5/  6   N/A
KENOSHA   LAKESH 0300   69     210/  6/  8 1016.3R
$$

TC  - TEMPERATURE IN CELSIUS
VSB - VISIBILITY IN STATUTE MILES
WCI - WIND CHILL INDEX
HX  - HEAT INDEX




USA.gov is the U.S. government's official web portal to all federal, state and local government web resources and services.